Preview of NWS' New Version of Forecast
This preview is not operational and should not be used for support decisions.

Regional Weather Roundup (RWR)

Issued by National Weather Service (NWS)

                            
000
ASUS44 KMEG 182110
RWRTN 
TENNESSEE HOURLY STATE WEATHER ROUNDUP
NATIONAL WEATHER SERVICE MEMPHIS TN
400 PM CDT THU JUL 18 2019

TNZ002-004-019-021-049-052-054-088>092-182200-
WEST TENNESSEE
  
CITY           SKY/WX    TMP DP  RH WIND       PRES   REMARKS
MEMPHIS INTL   PTSUNNY   90  76  63 SW8G16    29.99F HX 101           
NWS MEMPHIS      N/A     92 N/A N/A MISG        N/A                   
JACKSON        FAIR      87  80  79 S3        30.00F HX 103           
DYERSBURG      FAIR      88  81  79 S5        29.98F HX 106           
SOMERVILLE     MOSUNNY   91  77  62 SW10      29.98F HX 105           
COVINGTON      SUNNY     90  77  66 SW9       29.97F HX 102           
UNION CITY     SUNNY     88  79  74 SW7       29.96F HX 102           
BOLIVAR        MOSUNNY   91  75  59 SW10      29.98F HX 102           
PARIS          MOSUNNY   90  79  70 SW8       29.98F HX 105           
HUNTINGDON     MOSUNNY   90  77  66 W10       29.98F HX 102           
LEXINGTON      SUNNY     88  77  70 SW10      29.99F HX 100           
SELMER         SUNNY     88  75  66 VRB5      30.00S HX  97           
SAVANNAH       PTSUNNY   90  77  66 W10       29.99F HX 102           
$$

TNZ008-025-027-028-033-062-065-066-182200-
NORTH MIDDLE TENNESSEE
  
CITY           SKY/WX    TMP DP  RH WIND       PRES   REMARKS
NASHVILLE      PTSUNNY   81  72  74 SW9       30.02R THUNDER          
PORTLAND       MOSUNNY   88  75  66 S6        30.00F HX  97           
CLARKSVILLE    FAIR      87  75  67 SW6       29.98F HX  96           
LEBANON        MOCLDY    84  77  79 S10       29.99S HX  94           
SMYRNA         TSTM      75  73  94 SW13      30.05R FOG              
MURFREESBORO   PTCLDY    79  75  89 W3        30.01R                  
COOKEVILLE     SUNNY     77  73  88 S7        30.04S                  
LIVINGSTON     PTCLDY    86  72  62 VRB7      30.02S HX  92           
GALLATIN       CLOUDY    90  75  62 CALM      30.02S HX 100           
CROSSVILLE     PTSUNNY   80  71  74 SW8       30.08F                  
ROCKWOOD       CLEAR     82  75  78 VRB5G12   30.05S                  
$$

TNZ061-075-076-078-094-096-097-182200-
SOUTH MIDDLE TENNESSEE
  
CITY           SKY/WX    TMP DP  RH WIND       PRES   REMARKS
LAWRENCEBURG   CLEAR     84  70  61 NW6       30.03S                  
LEWISBURG      CLEAR     79  73  83 S6        30.03S                  
FAYETTEVILLE   SUNNY     79  75  89 CALM      30.04F                  
TULLAHOMA      SUNNY     75  72  88 SE6       30.06S                  
WINCHESTER     MOSUNNY   75  72  88 CALM      30.07R                  
MCMINNVILLE    SUNNY     73  73 100 S5        30.07R                  
COLUMBIA       SUNNY     79  79 100 CALM      30.01S                  
SHELBYVILLE    SUNNY     77  75  94 SE3       30.03F                  
$$

TNZ017-018-042-046-047-182200-
NORTHEAST TENNESSEE
  
CITY           SKY/WX    TMP DP  RH WIND       PRES   REMARKS
TRI CITIES     PTSUNNY   86  70  58 W9        30.01F THUNDER HX  90   
ELIZABETHTON   FAIR      77  73  88 CALM      30.02F                  
GREENEVILLE    PTCLDY    84  72  65 SW6       30.03S                  
$$

TNZ012-013-036-069-073-074-182200-
CENTRAL EAST TENNESSEE
  
CITY           SKY/WX    TMP DP  RH WIND       PRES   REMARKS
KNOXVILLE      PTSUNNY   78  71  79 SW7       30.01F                  
OAK RIDGE      FAIR      84  73  69 VRB5      30.02F HX  90           
DOWNTOWN KNOXV SUNNY     82  73  74 SW5       30.02S                  
GATLINBURG     PTSUNNY   79  72  78 SW8       30.03R                  
MORRISTOWN     MOSUNNY   84  75  74 SW12G17   30.02R HX  92           
JACKSBORO      MOSUNNY   90  73  58 CALM      30.03S HX  98           
$$

TNZ083-085-099-182200-
SOUTHEAST TENNESSEE
  
CITY           SKY/WX    TMP DP  RH WIND       PRES   REMARKS
CHATTANOOGA    PTSUNNY   87  75  67 SW9       30.03F HX  96           
DAYTON         CLEAR     86  77  74 VRB3      30.01S HX  97           
$$

SKY/WX REPORTED AS FAIR MEANS FEW OR NO CLOUDS BELOW
12 THOUSAND FEET.